Location: Brachbach
(49.1847°N, 9.7240°E)
Time: 04:51:11
(UTC+00:00)

STARS - Pass Details

Date: 21 March 2026
Orbit: 575 x 588 km, 98.2° (Epoch: 15 April)

Event Time Altitude Azimuth Distance (km) Brightness Sun altitude
Rises 01:12:26 0° 18° (NNE) 2,800 ? -35.8°
Reaches altitude 10° 01:14:38 10° 23° (NNE) 1,896 ? -35.6°
Enters shadow 01:15:30 16° 26° (NNE) 1,553 ? -35.5°
